Miscellaneous Local Product
Issued by NWS North Platte, NE

Home | Current Version | Previous Version | Graphics & Text | Print | Product List | Glossary On
Versions: 1 2 3 4 5 6 7 8 9 10 11 12 13 14 15 16 17 18 19 20 21 22 23 24 25 26 27 28 29 30 31 32 33 34 35 36 37 38 39 40 41 42 43 44 45 46 47 48 49 50
280
AXUS43 KLBF 171410
MISLBF


WESTERN AND NORTH CENTRAL NEBRASKA HOURLY WEATHER ROUNDUP
NATIONAL WEATHER SERVICE NORTH PLATTE NE
800 AM CST SAT FEB 17 2018

NOTE: "FAIR" INDICATES FEW OR NO CLOUDS BELOW 12,000 FEET WITH NO
SIGNIFICANT WEATHER AND/OR OBSTRUCTIONS TO VISIBILITY.

NOTE: STATIONS NOT REPORTING VARIABLES SUCH AS SKY/WEATHER OR
PRESSURE ARE PROVIDED BY RAWS AND APRS NETWORKS AND ARE NOT UNDER
NATIONAL WEATHER SERVICE QUALITY CONTROL.

...OBSERVATIONS IN AND NEAR THE EASTERN PANHANDLE OF NEBRASKA...

CITY           SKY/WX    TMP DP  RH WIND       PRES   REMARKS
PINE RIDGE     CLEAR     21  14  74 W9        29.95R WCI  11
GORDON         FAIR      19  13  80 W8        29.92R WCI   8
CHADRON        CLEAR     22  14  71 W23       29.96R WCI   6
ALLIANCE       PTCLDY    21  15  78 W9        29.96R WCI  11
SIDNEY         CLEAR     32  16  51 NW23      29.97R WCI  19
$$

...OBSERVATIONS IN NORTHERN NEBRASKA AND FAR SOUTHERN SOUTH DAKOTA...

CITY           SKY/WX    TMP DP  RH WIND       PRES   REMARKS
WINNER         FAIR      25  18  74 NW5       29.92R WCI  19
VALENTINE      CLEAR     23  18  81 W6        29.92R WCI  16
AINSWORTH      CLEAR     23  21  91 CALM      29.92R
O`NEILL        CLEAR     26  23  87 W7        29.91R WCI  18
THEDFORD         N/A     26  22  86 W9        29.94R WCI  16
BROKEN BOW     CLEAR     29  22  75 NW14      29.93R WCI  18
ORD            CLEAR     27  22  81 W8        29.93R WCI  19
ALBION         MOCLDY    30  23  75 NW12      29.91R WCI  20
$$

...OBSERVATIONS IN SOUTHWEST NEBRASKA AND FAR NORTHEAST COLORADO...

CITY           SKY/WX    TMP DP  RH WIND       PRES   REMARKS
WRAY           FAIR      27  19  74 NW12      30.01S WCI  16
HOLYOKE        FAIR      34  19  55 NW15      29.98F WCI  24
IMPERIAL       CLEAR     27  20  75 W10       30.00R WCI  17
OGALLALA       CLEAR     28  20  71 NW5       29.97R WCI  23
NORTH PLATTE   CLEAR     25  20  81 W5        29.96R WCI  19
MCCOOK         CLEAR     30  21  69 W9        29.98R WCI  22
LEXINGTON      CLEAR     22  18  84 W8        29.97R WCI  13
GOTHENBURG       N/A     24  19  82 W3          N/A
CALLAWAY         N/A     24  21  87 NW6         N/A  WCI  17
$$

...OBSERVATIONS IN CENTRAL LINCOLN COUNTY AREA...

CITY           SKY/WX    TMP DP  RH WIND       PRES   REMARKS
N.P. AIRPORT   CLEAR     25  20  81 W5        29.96R WCI  19
$$

...OBSERVATIONS ACROSS THE ROCKIES AND WESTERN HIGH PLAINS...

CITY           SKY/WX    TMP DP  RH WIND       PRES   REMARKS
RAPID CITY     CLEAR     27  21  78 N22       29.94R WCI  13
SCOTTSBLUFF    CLEAR     27  16  63 W6        29.99R WCI  20
CHEYENNE       CLEAR     29   9  43 NW23G33   29.97R WCI  15
DENVER         PTCLDY    30  11  45 VRB6      30.00R WCI  24
BERTHOUD PASS  CLOUDY     3  -8  60 NW31G44   29.97R WCI -22
COPPER MTN     CLEAR     12   3  67 W21G29    30.04R WCI  -6
MONARCH PASS     N/A     10   5  79 W43       30.17S WCI -15
ASPEN          CLEAR      7   2  80 S8        30.18R WCI  -6
LARAMIE        PTCLDY    20  10  65 W25       29.97R WCI   2
CASPER         CLEAR     16  10  77 W8        29.98R WCI   5
$$

...OBSERVATIONS ACROSS THE NORTHERN PLAINS...

CITY           SKY/WX    TMP DP  RH WIND       PRES   REMARKS
BISMARCK       MOCLDY    17  12  80 NW6       29.92R WCI   9
FARGO          FAIR      14  10  84 W8        29.85R WCI   3
PIERRE         SNOW      25  23  92 NW16      29.93R VSB 1/2 WCI  12
SIOUX FALLS    CLOUDY    25  24  96 SW3       29.88R
$$

...OBSERVATIONS ACROSS THE CENTRAL AND SOUTHERN PLAINS...

CITY           SKY/WX    TMP DP  RH WIND       PRES   REMARKS
OMAHA          CLOUDY    30  17  58 S7        29.92R WCI  23
GRAND ISLAND   PTCLDY    28  20  71 W16       29.94R WCI  16
KANSAS CITY    DRIZZLE   32  31  96 S10       29.97R WCI  24
WICHITA        PTCLDY    31  30  96 SW5       30.01R WCI  26
DODGE CITY     CLOUDY    30  18  60 N10       30.00R WCI  21
OKLAHOMA CITY  CLOUDY    36  34  92 S9        30.03R WCI  29
DALLAS         RAIN      44  42  93 N8        30.09R FOG
AMARILLO       CLEAR     39  36  89 NW10      30.03R WCI  32
$$




USA.gov is the U.S. government's official web portal to all federal, state and local government web resources and services.